Location: *
(47.6569°N, 7.4256°E)
Time: 17:38:42
(UTC+00:00)

YAOGAN 1 - Pass Details

Date: 14 December 2019
Orbit: 619 x 621 km, 98.0° (Epoch: 20 January)

Event Time Altitude Azimuth Distance (km) Brightness Sun altitude
Rises 18:42:23 0° 192° (SSW) 2,885 6.2 -29.8°
Reaches altitude 10° 18:44:47 10° 204° (SSW) 1,985 5.4 -30.2°
Maximum altitude 18:48:33 29° 265° (W) 1,151 4.5 -30.8°
Drops below altitude 10° 18:52:21 10° 326° (NW) 1,999 5.5 -31.5°
Sets 18:54:48 0° 337° (NNW) 2,910 6.3 -31.9°
